AIM (31304 NORAD) Tracking and Keplerian Element Data

This shows tracking and keplerian element data for the satellite.

Feedback or suggestion? Click here.




ElementValue
Catalog31304
NameAIM
Epoch Orbit91886
Epoch Day12.88392401
Epoch Year2024
RAAN333.1419
Inclination97.8915
Eccentricity0.0004418
Argument of Perigee131.3675
Mean Anonmoly228.7952
Mean Motion15.43262501
Decay Rate0.00048571
L11 31304U 07015A 24012.88392401 .00048571 00000+0 10888-2 0 9999
L22 31304 97.8915 333.1419 0004418 131.3675 228.7952 15.43262501918865



Live tracking and technical data element details for AIM (NORAD 31304). AIM can be tracked NOW for your location showing map with azimuth and elevation plus other details from your city location.







IsCatalogInMostPopularTable: catalog: 31304, numindb: 606
Update: records affected: 1



GetName: 31304 AIM

Hit Count: updated at: Sat, 06 Dec 2025 18:06:15 GMT